Tracking 34408 objects as of 13-Jun-2026
HD Live streaming from Space Station
objects crossing your sky now

AFR-1

Track AFR-1 now!
10-day predictions


NORAD ID: 56964
Int'l Code: 2023-084AJ
Perigee: 480.3 km
Apogee: 494.4 km
Inclination: 97.6 °
Period: 94.2 minutes
Semi major axis: 6858 km
RCS: Unknown
Launch date: June 12, 2023
Source: India (IND)
Launch site: AIR FORCE WESTERN TEST RANGE (AFWTR)
Your satellite tracking list
Your tracking list is empty




NASA's NSSDC Master Catalog

Two Line Element Set (TLE):
1 56964U 23084AJ  26164.50089994  .00004693  00000-0  17169-3 0  9999
2 56964  97.6265 301.1032 0010289   0.2487 359.8756 15.28526743166669
Source of the keplerian elements: AFSPC